ENROENTO

Guest
Details From ENRO - ROROS
To ENTO - TORP
Flight Number -
Tags generated
Created
Modified
Stats Distance 212 nm / 392 km
Max Altitude 22,400 ft / 6,828 m
Waypoints 4
Social Downloads 0
Likes 0
Share VATSIM

Download

Looking for another format? Having issues loading an existing format? Contact us
Advertisement - Login to hide

Notes

Basic altitude profile: - Ascent Rate: 2500ft/min - Ascent Speed: 140kts - Cruise Altitude: 10000ft - Cruise Speed: 170kts - Descent Rate: 1500ft/min - Descent Speed: 100kts Options: - Use NATs: no - Use PACOTS: no - Use low airways: no - Use high airways: no

Route

ENRO 6100N01000E 6000N01000E ENTO

ID Type Via Altitude Latitude Longitude Leg Dist Tot Dist Heading (true) Name
O ENRO APT - 0 ft / 0 m 62.57914˚ 11.34474˚ - 0 nm - ROROS
6100N01000E LATLON - 22,400 ft / 6,828 m 61.00000˚ 10.00000˚ 102 nm 102 nm 203° / 201° -
6000N01000E LATLON - 10,600 ft / 3,231 m 60.00000˚ 10.00000˚ 60 nm 162 nm 180° / 180° -
O ENTO APT - 0 ft / 0 m 59.18666˚ 10.25860˚ 49 nm 211 nm 171° / 171° TORP

Altitude Profile

Advertisement - Login to hide

Weather


0- 5 10 15 20 25 30 35+ Temperature / ° C

Clouds and Precipitation
Forecast for 2018-05-23 00:00 UTC. Updated 3 hours ago

Ground ~20,000 ft ~40,000 ft Winds

ENRO

Details ICAO ENRO (RRS)
Name ROROS
Region Norway
Timezone Europe/Oslo (UTC+2.0)
Stats Elevation 2,054 ft / 626 m (AMSL)
Location 62.579144° 11.344735°
Runways 1
Magnetic Variation 3.716° E

METAR

ENRO 230150Z AUTO 33004KT 9999NDV OVC012/// 05/04 Q1025

Decode

TAF

Not found

Departure Runways

ID Width Length Bearing (true) Bearing (mag) Surface Threshold Offset Overrun Length
14 131 ft / 40 m 5,628 ft / 1,715 m 136.11° 132.39° Asphalt 0 ft / 0 m 0 ft / 0 m
32 131 ft / 40 m 5,628 ft / 1,715 m 316.13° 312.41° Asphalt 0 ft / 0 m 0 ft / 0 m

ENTO

Details ICAO ENTO (TRF)
Name TORP
Region Norway
Timezone Europe/Oslo (UTC+2.0)
Stats Elevation 286 ft / 87 m (AMSL)
Location 59.186662° 10.258596°
Runways 1
Magnetic Variation 3.069° E

METAR

ENTO 230150Z AUTO 36004KT 9999 NCD 10/06 Q1020

Decode

TAF

TAF ENTO 222300Z 2300/2324 01008KT CAVOK BECMG 2312/2314 21010KT BECMG 2318/2320 VRB05KT

Decode

Destination Runways

ID Width Length Bearing (true) Bearing (mag) Surface Threshold Offset Overrun Length
18 148 ft / 45 m 9,820 ft / 2,993 m 179.40° 176.33° Asphalt 1,231 ft / 375 m 0 ft / 0 m
36 148 ft / 45 m 9,820 ft / 2,993 m 359.40° 356.33° Asphalt 1,231 ft / 375 m 0 ft / 0 m

Approach Navaids

Runway Type Ident Frequency Range Bearing (true) Bearing (mag) Slope Elevation
18 Localiser TP 108.30 MHz 18 nm / 33 km 179.33° 176.26° - 312 ft / 95 m (AMSL)
18 Glidescope TP 108.30 MHz 10 nm / 19 km 179.40° 176.33° 3.00° 286 ft / 87 m (AMSL)
36 Localiser SFJ 110.95 MHz 25 nm / 46 km 359.33° 356.26° - 268 ft / 82 m (AMSL)
36 Glidescope SFJ 110.95 MHz 25 nm / 46 km 359.33° 356.26° 3.00° 254 ft / 77 m (AMSL)
36 DME SFJ 110.95 MHz 25 nm / 46 km - - - 279 ft / 85 m (AMSL)

Popular Alternatives